Notices

What's New in latest Release from April 7th, 2021:

- Updated Glossary, including Speed of Maximum Gust, and Total Hourly Precipitation

- Updated national and regional climate services offices contacts and prices information

- Addition of station inventory lists for 1981-2010, 1971-2000, and 1961-1990 Normals.

If you haven't already, please take our survey and provide feedback about our website: https://eccc.sondage-survey.ca/f/LanguageSelection.aspx?s=442ca660-fcf1-47c0-95a9-59707d6fd709

Hourly Data Report for January 30, 2021

EDMUNDSTON
NEW BRUNSWICK
Current Station Operator: ECCC - MSC

47°25'00.000" N
68°19'28.040" W
154.20 m
8101303
71590
ERM

Download Data

Hourly Data (January 2021)
Hourly Data Report for January 30, 2021
TIME
LST
Temp Definition
°C
Dew Point Definition
°C
Rel Hum Definition
%
Precip. Amount Definition
mm

Wind Dir Definition
10's deg

Wind Spd Definition
km/h
Visibility Definition
km
Stn Press Definition
kPa
Hmdx Definition


Wind Chill Definition


Weather Definition


00:00 -13.9 -18.8 66 0.0 31 12   99.82   -21 LegendNANA
01:00 -14.2 -19.5 64 0.0 31 15   99.80   -22 LegendNANA
02:00 -14.5 -19.6 65 0.0 31 13   99.79   -22 LegendNANA
03:00 -14.9 -20.0 65 0.0 32 13   99.83   -22 LegendNANA
04:00 -15.1 -20.1 66 0.0 31 11   99.80   -22 LegendNANA
05:00 -15.1 -19.6 68 0.0 31 10   99.81   -21 LegendNANA
06:00 -15.0 -19.2 71 0.0 31 9   99.81   -21 LegendNANA
07:00 -15.0 -19.0 72 0.0 31 9   99.86   -21 LegendNANA
08:00 -15.2 -19.0 73 0.0 31 10   99.92   -21 LegendNANA
09:00 -15.1 -19.2 71 0.0 32 15   100.00   -23 LegendNANA
10:00 -15.0 -19.7 67 0.0 32 13   100.05   -22 LegendNANA
11:00 -14.7 -19.8 65 0.0 32 15   100.10   -23 LegendNANA
12:00 -14.0 -20.0 61 0.0 30 14   100.10   -21 LegendNANA
13:00 -13.5 -20.0 58 0.0 30 11   100.10   -20 LegendNANA
14:00 -14.0 -20.1 60 0.0 28 16   100.09   -22 LegendNANA
15:00 -13.1 -19.9 56 0.0 35 20   100.07   -22 LegendNANA
16:00 -13.4 -20.1 57 0.0 35 20   100.12   -22 LegendNANA
17:00 -13.9 -20.1 59 0.0 34 15   100.18   -22 LegendNANA
18:00 -15.4 -20.6 64 0.0 31 8   100.25   -21 LegendNANA
19:00 -16.2 -20.4 70 0.0 32 7   100.30   -21 LegendNANA
20:00 -19.3 -22.0 80 0.0 27 3   100.34   -22 LegendNANA
21:00 -18.9 -21.4 80 0.2 32 5   100.35   -23 LegendNANA
22:00 -18.7 -21.0 82 0.0 30 6   100.39   -24 LegendNANA
23:00 -20.0 -21.9 85 0.0 27 5   100.39   -24 LegendNANA

Notes on Data Quality.

Legend

  • E = Estimated
  • M = Missing
  • NA = Not Available*
  • [empty] = Indicates an unobserved value
Date modified: